Weather Roundup
Issued by NWS Springfield, MO

Home | Current Version | Previous Version | Text Only | Print | Product List | Glossary On
Versions: 1 2 3 4 5 6 7 8 9 10 11 12 13 14 15 16 17 18 19 20 21 22 23 24 25 26 27 28 29 30 31 32 33 34 35 36 37 38 39 40 41 42 43 44 45 46 47 48 49 50
000
NZUS99 KSGF 280157
HRRSGF

HOURLY WEATHER
NATIONAL WEATHER SERVICE SPRINGFIELD MO
900 PM CDT FRI MAY 27 2016

......SGF CWA......

CITY           SKY/WX    TMP DP  RH WIND       PRES   REMARKS
SPRINGFIELD    MOCLDY    72  66  81 S10       29.75R
JOPLIN         CLOUDY    70  67  90 S6        29.74R
WEST PLAINS    CLOUDY    70  66  87 S12G21    29.83S
ROLLA          CLOUDY    68  65  90 SE10G18   29.78S
BRANSON        CLOUDY    68  64  88 S10       29.79R

......SURROUNDING SGF CWA......

CITY           SKY/WX    TMP DP  RH WIND       PRES   REMARKS
CHANUTE        CLOUDY    71  66  84 CALM      29.72R
PARSONS        PTCLDY    72  65  78 CALM      29.74R
COFFEYVILLE    CLOUDY    71  64  78 S7        29.71R
EMPORIA        RAIN      60  58  92 SW5       29.73S
HARRISON AR    MOCLDY    69  63  81 S12       29.81R

......KANSAS AND MISSOURI......

CITY           SKY/WX    TMP DP  RH WIND       PRES   REMARKS
KANSAS CTY INT CLOUDY    68  63  84 E3        29.74R
SEDALIA        CLOUDY    73  68  84 S6        29.76R
ST JOSEPH      CLOUDY    69  66  90 N5        29.70F
ST LOUIS       CLOUDY    72  66  81 SE12      29.82R
WICHITA        CLOUDY    64  59  83 E12       29.65S
TOPEKA         CLOUDY    61  58  90 NW3       29.73F
OLATHE         CLOUDY    70  65  84 SE5       29.74R

......TENNESSEE......

CITY           SKY/WX    TMP DP  RH WIND       PRES   REMARKS
MEMPHIS        NOT AVBL
NASHVILLE      CLOUDY    79  63  57 SW3       29.98R

......ARKANSAS.......

CITY           SKY/WX    TMP DP  RH WIND       PRES   REMARKS
FAYETTEVILLE   CLOUDY    68  64  87 SE6       29.78R
FT SMITH       MOCLDY    71  63  75 SE5       29.77R
LITTLE ROCK    CLOUDY    72  65  78 E7        29.84

......OKLAHOMA.......

CITY           SKY/WX    TMP DP  RH WIND       PRES   REMARKS
TULSA          CLOUDY    74  65  73 S16       29.68R
PONCA CITY     CLOUDY    65  62  90 VRB3      29.67R
MCALESTER      MOCLDY    71  64  78 S7        29.79R
OKLAHOMA CITY  CLOUDY    65  57  75 S12       29.71R

......IOWA............

CITY           SKY/WX    TMP DP  RH WIND       PRES   REMARKS
DES MOINES     NOT AVBL
QUAD CITIES    MOCLDY    75  67  76 SE9       29.75R

......ILLINOIS........

CITY           SKY/WX    TMP DP  RH WIND       PRES   REMARKS
QUINCY         NOT AVBL
CHICAGO        LGT RAIN  75  65  70 S25G38    29.85R




USA.gov is the U.S. government's official web portal to all federal, state and local government web resources and services.